STARLINK-34284, 64212

Orbit data source: Space-Track

STARLINK-34284, 64212 is a payload satellite owned by SpaceX/Seattle (US) in LEO that was launched on Thu, 05 Jun 2025 UTC via an FALCON 9 launch vehicle from the Air Force Western Test Range (AFWTR). Payload-class satellites include a variety of spacecraft equipped with specific instruments for various scientific and technological missions. These include communications satellites like Starlink; space stations such as the ISS; scientific satellites like the Hubble; Earth observation satellites from companies like Planet Labs, Umbra, and HawkEye 360; GPS; miniature CubeSats for education and research; and military/defense satellites.

Loading next visibility...
Identifier
64212, 2025-117K
Orbit
LEO
Last TLE update
3 hours ago
Origin
Manufacturer
SpaceX/Seattle
Mission
Operational spacecraft
Bus & Motor
STARLINK V2MO, Unknown motor
Mass
575 kg wet, ~530 kg dry
Launch date (UTC)
2025-06-05 (2 weeks ago)
Launch vehicle
FALCON 9
Launch site
Air Force Western Test Range (AFWTR)
Object type
Payload
Rocket body
Debris
Shape & HBR
Unknown
Radar Cross Section
Large (>1 m²)

Expand to show TLE details & history

TLE from 3 hours ago
0 STARLINK-34284
1 64212U 25117K   25170.16670139 -.01560159  00000-0 -15461-1 0  9996
2 64212  53.1604 189.2513 0001101  93.8166 147.2976 15.68072560  3077
Epoch: 2025-06-19T04:00Z
TLE epoch observation values (Epoch: 2025-06-19T04:00:03Z)
Latitude
-44.68597°
Longitude
89.06509°
Altitude
380.13 km
Speed
7.681 km/s
True Right ascension
03h 46m 51s
True Declination
-44° 30' 16"
Sunlit
Object was in daylight at epoch
Visualization orbit readout
Latitude
-48.47854°
Longitude
163.64022°
Altitude
383.049 km
Speed
7.679 km/s
Apparent Right ascension
07h 22m 29s
Apparent Declination
-45° 52' 25"
Sunlit
Object is in daylight
Visualization observer readout
Local Sidereal Time
18:07:00
Azimuth
240.426° WSW
Elevation
-74.992°
Doppler factor
1
Orbital elements
Apogee altitude
365.419 km
Perigee altitude
363.935 km
Semi-major axis
6,742.814 km
Eccentricity
0.00011
Inclination
53.1604°
RAAN
189.2513°
Arg. of periapsis
93.8166°
True anomaly
Unknown
Mean anomaly
147.2976°
Eccentric anomaly
Unknown
Mean motion
3.91996 °/min
Orbital period
91.84 mins
BSTAR
-0.015461
Loading maneuver chart data...
Loading SW <> Apogee altitude chart data...
Loading historical data...
Loading historical data...
Loading historical data...
Loading historical data...
Loading historical data...
Loading historical data...
Loading historical data...

STARLINK-34284 Visibility forecast

Observer location: undefined°, undefined°

Span
Click to sort rows by Start time (UTC) header in descending order
Start Az.
Max El. time (UTC)
Max El. Az.
Max El.
End time (UTC)
End Az.
4 mins2025-06-19 11:08:23.112Z305.742° NW2025-06-19 11:10:23.112Z162.798° S43.094°2025-06-19 11:12:23.112Z135.728° SSE
4 mins2025-06-20 03:40:23.112Z200.319° SSW2025-06-20 03:41:23.112Z149.109° SSE39.509°2025-06-20 03:44:23.112Z57.979° ENE
|